sat.trackr.live / text

‹ back to catalog

FLOCK 4BE-19

NORAD 60563 · 2024-149CZ

PAYLOAD ACTIVE UNKNOWN

§ Identity

Operator
Country
US
Launch date
2024-08-16
Launch site
AFWTR
Launch vehicle
Mass (kg)
RCS (m²)

Purposes: earth_obs

External: N2YO · Heavens-Above · Gunter

§ Orbital elements

Epoch: 2026-05-25T04:22:33.623904Z

Period
93.31 min
Inclination
97.3742°
Eccentricity
0.0004076
Mean motion
15.43244270 rev/d
Perigee alt
433.8 km
Apogee alt
439.3 km
Semi-major
6,814.7 km
B*
3.9609e-4
RAAN
230.3128°
Arg perigee
35.3207°
Mean anomaly
324.8310°
Rev number
9,887

§ Raw data

FLOCK 4BE-191 60563U 24149CZ  26145.18233361  .00017533  00000+0  39609-3 0  99932 60563  97.3742 230.3128 0004076  35.3207 324.8310 15.43244270 98875

JSON: /api/v1/satellites/60563 · /tle

For live sub-satellite position, see the globe view (requires WebGL).

§ Visibility from observer

Set your observer location to see the next 7 days of passes ≥ 10°. The values pass through the URL so the page stays shareable.

No JS? Fill the form by hand. The geolocation button needs JavaScript.